Вернуться в каталог

ONEWEB-0062

АктивенСвязьPO
NORAD 45163·PAYLOAD·🇬🇧 United Kingdom

Запущен Feb 6, 2020 с Baikonur Cosmodrome

Loading…

Ближайшие Пролёты (ближайшие 24 часа)

TLE

СвежийSource: CelesTrak SupGP

Эпоха: Sep 14, 2026, 21:33 UTC

1 45163C 20008AJ  26257.89810600 -.00000266  00000+0 -76405-3 0  2570
2 45163  87.8905  18.4078 0001577  92.6182  20.6861 13.10370623    14

Отслеживайте ONEWEB-0062 в реальном времени с AllMySat

Download on the App Store